Location: Barcelona
(41.3830°N, 2.1830°E)
Time: 11:47:22
(UTC+01:00)

NOAA 15 - Visible Passes

Search period start: 26 March 2019 00:00
Search period end: 05 April 2019 01:00
Orbit: 797 x 813 km, 98.8° (Epoch: 25 March)

Date Brightness Start Highest point End Pass type
(mag) Time Alt. Az. Time Alt. Az. Time Alt. Az.
26 Mar 5.8 19:39:36 10° S 19:44:40 47° W 19:49:45 10° NNW visible
28 Mar 7.5 20:31:29 10° SW 20:34:45 16° W 20:38:02 10° NW visible
29 Mar 6.8 20:05:01 10° SSW 20:09:29 28° W 20:13:59 10° NW visible
30 Mar 5.8 19:39:15 10° S 19:44:18 47° W 19:49:23 10° NNW visible
01 Apr 7.4 21:31:05 10° SW 21:34:22 17° W 21:37:41 10° NW visible
02 Apr 6.8 21:04:37 10° SSW 21:09:06 28° W 21:13:36 10° NW visible
03 Apr 5.8 20:38:52 10° S 20:43:55 48° W 20:49:00 10° NNW visible
